Salt Lake City, UT

12:37 AM MDT on September 29, 2016 (GMT -0600)
Salt Lake City International

Weather History for KSLC - February, 2013

Change the Weather History Date:

Thursday, February 28, 2013

  Actual Average Record
Temperature  
Mean Temperature 31 °F 39 °F  
Max Temperature 39 °F 48 °F 69 °F (1972)
Min Temperature 22 °F 29 °F -5 °F (1890)
Degree Days  
Heating Degree Days 34 26  
Month to date heating degree days 1012 862  
Since 1 July heating degree days 4232 4256  
Cooling Degree Days 0 0  
Month to date cooling degree days 0 0  
Year to date cooling degree days 0 0  
Moisture  
Dew Point 18 °F    
Average Humidity 59    
Maximum Humidity 75    
Minimum Humidity 43    
Precipitation  
Precipitation 0.00 in 0.05 in 0.95 in (2004)
Month to date precipitation 0.68 1.25  
Year to date precipitation 2.20 2.50  
Snow  
Snow 0.00 in 0.30 in 5.20 in (2004)
Month to date snowfall 14.7 10.7  
Since 1 July snowfall 67.1 45.4  
Snow Depth T in    
Sea Level Pressure  
Sea Level Pressure 30.50 in    
Wind  
Wind Speed 5 mph (ENE)    
Max Wind Speed 12 mph    
Max Gust Speed 13 mph    
Visibility 10 miles    
Events      
T = Trace of Precipitation, MM = Missing Value Source: NWS Daily Summary

Daily Weather History Graph

Daily Weather History Graph

Search for Another Location

Airport or City:

Trip Planner

Search our weather history database for the weather conditions in past years. The results will help you decide how hot, cold, wet, or windy it might be!

Date:

Astronomy

Feb. 28, 2013 Rise Set
Actual Time 7:02 AM MST 6:18 PM MST
Civil Twilight 6:35 AM MST 6:45 PM MST
Nautical Twilight 6:03 AM MST 7:17 PM MST
Astronomical Twilight 5:31 AM MST 7:49 PM MST
Moon 9:51 PM MST (2/28) 8:13 AM MST (2/28)
Length of Visible Light 12h 10m
Length of Day
11h 15m
Waning Gibbous, 90% of the Moon is Illuminated
Feb 28
Waning Gibbous
Mar 4
Last Quarter
Mar 11
New
Mar 19
First Quarter
Mar 27
Full

Hourly Weather History & Observations

Time (MST) Temp. Windchill Dew Point Humidity Pressure Visibility Wind Dir Wind Speed Gust Speed Precip Events Conditions
12:53 AM 25.0 °F 19.3 °F 12.9 °F 60% 30.48 in 10.0 mi ESE 4.6 mph - N/A   Partly Cloudy
1:53 AM 24.1 °F 15.2 °F 12.0 °F 60% 30.48 in 10.0 mi SE 8.1 mph - N/A   Partly Cloudy
2:53 AM 24.1 °F 15.2 °F 14.0 °F 65% 30.47 in 10.0 mi SSE 8.1 mph - N/A   Clear
3:53 AM 24.1 °F 17.0 °F 12.9 °F 62% 30.47 in 10.0 mi South 5.8 mph - N/A   Clear
4:53 AM 23.0 °F 13.1 °F 12.9 °F 65% 30.48 in 10.0 mi ESE 9.2 mph - N/A   Clear
5:53 AM 23.0 °F 15.8 °F 12.0 °F 63% 30.48 in 10.0 mi SE 5.8 mph - N/A   Partly Cloudy
6:53 AM 23.0 °F 14.7 °F 12.9 °F 65% 30.51 in 10.0 mi SE 6.9 mph - N/A   Scattered Clouds
7:53 AM 23.0 °F 15.8 °F 12.9 °F 65% 30.51 in 10.0 mi SE 5.8 mph - N/A   Scattered Clouds
8:53 AM 25.0 °F 17.1 °F 14.0 °F 63% 30.52 in 10.0 mi SE 6.9 mph - N/A   Scattered Clouds
9:53 AM 30.0 °F - 15.1 °F 54% 30.52 in 10.0 mi Calm Calm - N/A   Mostly Cloudy
10:53 AM 33.1 °F 30.0 °F 14.0 °F 46% 30.51 in 10.0 mi South 3.5 mph - N/A   Mostly Cloudy
11:53 AM 37.0 °F - 17.1 °F 44% 30.50 in 10.0 mi Calm Calm - N/A   Mostly Cloudy
12:53 PM 37.0 °F 31.0 °F 19.0 °F 48% 30.50 in 10.0 mi North 8.1 mph - N/A   Mostly Cloudy
1:53 PM 37.4 °F 32.8 °F 17.6 °F 45% 30.43 in 10.0 mi North 5.8 mph - N/A   Mostly Cloudy
2:53 PM 37.9 °F 34.4 °F 21.0 °F 51% 30.48 in 10.0 mi NNW 4.6 mph - N/A   Mostly Cloudy
3:53 PM 37.0 °F 31.0 °F 21.0 °F 52% 30.50 in 10.0 mi North 8.1 mph - N/A   Overcast
4:53 PM 37.0 °F - 21.0 °F 52% 30.48 in 10.0 mi Calm Calm - N/A   Mostly Cloudy
5:53 PM 37.0 °F 32.4 °F 21.9 °F 54% 30.50 in 10.0 mi NNW 5.8 mph - N/A   Mostly Cloudy
6:53 PM 34.0 °F 29.8 °F 26.1 °F 73% 30.51 in 10.0 mi NNW 4.6 mph - N/A   Mostly Cloudy
7:53 PM 35.1 °F 30.1 °F 21.0 °F 57% 30.52 in 10.0 mi NW 5.8 mph - N/A   Overcast
8:53 PM 34.0 °F 28.0 °F 25.0 °F 70% 30.53 in 10.0 mi North 6.9 mph - N/A   Overcast
9:53 PM 34.0 °F - 26.1 °F 73% 30.53 in 10.0 mi Calm Calm - N/A   Overcast
10:53 PM 33.1 °F 30.0 °F 26.1 °F 75% 30.53 in 10.0 mi North 3.5 mph - N/A   Overcast
11:53 PM 34.0 °F - 23.0 °F 64% 30.49 in 10.0 mi Calm Calm - N/A   Overcast